Location: Newark
(45.8667°N, 9.7333°E)
Time: 22:24:29
(UTC+00:00)

AO-73 - Pass Details

Date: 23 February 2020
Orbit: 581 x 664 km, 97.6° (Epoch: 06 April)

Event Time Altitude Azimuth Distance (km) Brightness Sun altitude
Rises 17:29:57 0° 196° (SSW) 2,901 ? -6.3°
Reaches altitude 10° 17:32:24 10° 209° (SSW) 2,013 ? -6.7°
Maximum altitude 17:36:07 26° 266° (W) 1,260 ? -7.3°
Drops below altitude 10° 17:39:55 10° 324° (NW) 2,066 ? -8.0°
Sets 17:42:28 0° 337° (NNW) 2,993 ? -8.4°
